Regional Weather Roundup
Issued by NWS

Home | Current Version | Previous Version | Graphics & Text | Print | Product List | Glossary On
Versions: 1 2 3 4 5 6 7 8 9 10 11 12 13 14 15 16 17 18 19 20 21 22 23 24 25 26 27 28 29 30 31 32 33 34 35 36 37 38 39 40 41 42 43 44 45 46 47 48 49 50
000
ASUS45 KSLC 231110
RWRUT

UTAH REGIONAL WEATHER ROUNDUP
NATIONAL WEATHER SERVICE SALT LAKE CITY UT
500 AM MDT SUN APR 23 2017

UTZ001>011-023>025-231200-

NORTHERN UTAH

CITY           SKY/WX    TMP DP  RH WIND       PRES   REMARKS
BRIGHAM CITY   PTCLDY    42  38  86 NW7       29.91S
HILL AFB       NOT AVBL
LOGAN          PTCLDY    39  35  86 W6        29.91F WCI  35
OGDEN          PTCLDY    44  33  65 S9        29.89F
SALT LAKE CITY MOCLDY    52  34  50 S10       29.88F
TOOELE VALLEY  PTCLDY    46  36  66 E7        29.88F
WENDOVER       CLEAR     45  36  70 CALM      29.88F
HEBER CITY     CLOUDY    34  28  80 CALM      29.96S
WEST JORDAN    PTCLDY    49  40  69 SE5       29.90F

$$

UTZ011>015-024>027-231200-

CENTRAL/NORTHEAST UTAH

CITY           SKY/WX    TMP DP  RH WIND       PRES   REMARKS
PROVO AIRPORT  MOCLDY    47  33  58 N5        29.93S
MOAB/CANYONLAN CLOUDY    45  17  32 E3        29.98F
DELTA          CLOUDY    43  36  75 E3        29.91F
PRICE          MOCLDY    41  19  41 NE7       30.02F
ROOSEVELT      CLOUDY    32  27  80 W5        30.04F WCI  27
VERNAL         CLOUDY    35  23  61 W5        30.02F WCI  31

$$

UTZ013>016-019>022-027-231200-

SOUTHERN UTAH

CITY           SKY/WX    TMP DP  RH WIND       PRES   REMARKS
BRYCE CANYON   MOCLDY    31  23  72 W7        30.09F WCI  24
CEDAR CITY     CLOUDY    48  28  46 E6        29.95S
MILFORD        MOCLDY    43  33  68 S7        29.91F
ST GEORGE      CLOUDY    60  25  26 SE7       29.88F
HANKSVILLE     CLOUDY    41  14  33 CALM      30.01F
BLANDING       PTCLDY    43  17  34 NE3       30.17S

$$

REGIONAL REPORTS     COLORADO/ARIZONA

CITY           SKY/WX    TMP DP  RH WIND       PRES   REMARKS
CRAIG, CO      CLOUDY    29  24  82 CALM      30.08F
GRAND JUNCTION CLOUDY    43  24  47 SE12      30.03F
RIFLE, CO      CLOUDY    34  27  75 CALM      30.10F
MONTROSE, CO   CLOUDY    35  23  61 SE7       30.11F WCI  29
CORTEZ, CO     CLOUDY    32  23  69 VRB3      30.11F
COLORADO CITY    N/A     43  27  52 S5        29.99F
PAGE, AZ       PTCLDY    50  23  34 CALM      29.97F
GRAND CANYON   CLEAR     31  22  69 CALM      30.07F
KINGMAN, AZ    CLEAR     52  26  36 SE9       29.88F
FLAGSTAFF, AZ  CLEAR     31  21  66 CALM      30.10F

$$

REGIONAL REPORTS    NEVADA/IDAHO/WYOMING

CITY           SKY/WX    TMP DP  RH WIND       PRES   REMARKS
LAS VEGAS, NV  MOCLDY    71  21  15 VRB6      29.76F
ELY, NY        CLEAR     45  25  45 S7        29.93F
ELKO, NV       MOCLDY    45  35  68 NW3       29.89F
POCATELLO, ID  CLOUDY    44  37  76 W9        29.92R
BURLEY, ID     CLOUDY    51  41  68 SW8       29.89S
EVANSTON, WY   CLOUDY    40  21  46 S6        29.98S
ROCK SPRINGS,  CLOUDY    39  20  46 S9        29.99F WCI  33
KEMMERER, WY     N/A     30  27  86 N7        30.00S WCI  23

$$



USA.gov is the U.S. government's official web portal to all federal, state and local government web resources and services.